Regional Weather Roundup
Issued by NWS State College, PA

Home | Current Version | Previous Version | Graphics & Text | Print | Product List | Glossary Off
Versions: 1 2 3 4 5 6 7 8 9 10 11 12 13 14 15 16 17 18 19 20 21 22 23 24 25 26 27 28 29 30 31 32 33 34 35 36 37 38 39 40 41 42 43 44 45 46 47 48 49 50

294
ASUS41 KCTP 260310
RWRCTP

REGIONAL WEATHER ROUNDUP
NATIONAL WEATHER SERVICE STATE COLLEGE PA
1100 PM EDT THU MAY 25 2017

Note: "fair" indicates few or no clouds below 12,000 feet with no
significant weather and/or obstructions to visibility.

* = STATION THAT DOES NOT REPORT PRECIPITATION /E.G. RAIN...SNOW...ETC/
    THUNDER OR FOG.

PAZ002>004-007>009-013>016-020>023-029>032-260400-
WESTERN PENNSYLVANIA

CITY           SKY/WX    TMP DP  RH WIND       PRES   REMARKS
ERIE           CLOUDY    56  55  97 SW5       29.55R
MEADVILLE      LGT RAIN  56  56 100 W5        29.57R
FRANKLIN*      CLOUDY    55  54  94 CALM      29.58R
NEW CASTLE     LGT RAIN  57  55  93 W3        29.59R
BEAVER COUNTY  NOT AVBL
BUTLER*        CLOUDY    57  54  88 SW7       29.58R
PITTSBURGH INT DRIZZLE   58  57  97 W5        29.58R
PITTSBURGH     CLOUDY    58  54  86 SW8       29.58R
INDIANA*       CLOUDY    57  57 100 W7        29.60R
LATROBE        CLOUDY    57  57 100 SW10      29.59R
WASHINGTON CO* CLOUDY    55  54  94 SW5       29.61R
$$

PAZ004>006-010>012-017>019-024>028-033>037-041-042-045-046-049>053-260400-
CENTRAL PENNSYLVANIA

CITY           SKY/WX    TMP DP  RH WIND       PRES   REMARKS
BRADFORD       CLOUDY    57  55  93 W5        29.55R
DUBOIS         CLOUDY    55  52  89 W7        29.55R
CLEARFIELD     LGT RAIN  57  56  96 S3        29.55R
JOHNSTOWN      CLOUDY    55  53  93 W9        29.58R
ALTOONA        MOCLDY    57  55  93 SW5       29.56R
STATE COLLEGE  CLOUDY    56  55  99 SW3       29.55R
WILLIAMSPORT   CLOUDY    60  58  92 CALM      29.50R
SELINSGROVE    MOCLDY    59  58  96 CALM      29.51R
FT INDIANTOWN  NOT AVBL
CAPITAL CITY   CLOUDY    61  57  87 SW5       29.50R
HARRISBURG     CLOUDY    62  60  93 CALM      29.49R
YORK           CLOUDY    60  59  96 W7        29.51R
$$

PAZ038>040-043-044-047-048-054-055-060>062-067>071-260400-
EASTERN PENNSYLVANIA

CITY           SKY/WX    TMP DP  RH WIND       PRES   REMARKS
SCRANTON       CLOUDY    60  57  89 NE6       29.51R
MOUNT POCONO   CLOUDY    53  53 100 E5        29.51S
ALLENTOWN      CLOUDY    61  56  83 CALM      29.50R
QUAKERTOWN*    MOCLDY    57  57 100 CALM      29.51S
READING        RAIN      61  60  97 E7        29.48R
LANCASTER      CLOUDY    63  62  97 N8        29.49R
COATESVILLE    HVY RAIN  55  55 100 NE3       29.49S
POTTSTOWN      HVY RAIN  57  56  96 NW7       29.50F FOG
BLUE BELL      CLOUDY    54  54 100 CALM      29.49F
DOYLESTOWN     RAIN      56  56 100 W5        29.50F FOG
WILLOW GROVE   NOT AVBL
NORTH PHILA    LGT RAIN  59  56  89 N6        29.48F
PHILADELPHIA   LGT RAIN  58  55  90 NW15G22   29.44F
$$




USA.gov is the U.S. government's official web portal to all federal, state and local government web resources and services.